Retour au catalogue

STARLINK-5413

ActifCommunicationsVLEO
NORAD 54808·PAYLOAD·🇺🇸 United States

Lancé Dec 17, 2022 depuis Cape Canaveral Space Force Station

Loading…

Prochains Passages (prochaines 24 heures)

TLE

FraisSource: CelesTrak SupGP

Époque: Sep 14, 2026, 22:03 UTC

1 54808C 22175BC  26257.91923611  .00722990  00000+0  26403-1 0  2577
2 54808  53.1608 243.3496 0001271  97.9472  50.8613 15.27216667    17

Suivez STARLINK-5413 en temps réel avec AllMySat

Download on the App Store